This is the latest recevied weather packets stored in our database for station/object KM5R. If no packets are shown the sender has not sent any weather packets the latest 1 day(s).
| Time | Temp. | Humidity | Pressure | Rain* | Wind** | Luminosity | Snow |
|---|---|---|---|---|---|---|---|
| 1836274755 | 24.44° C | 65% | 1018.5 hPa | 0 mm | 0 m/s | 0 W/m² | - |
| 1836274452 | 24.44° C | 64% | 1018.5 hPa | 0 mm | 0 m/s | 0 W/m² | - |
| 1836274306 | 24.44° C | 65% | 1018.5 hPa | 0 mm | 0 m/s | 0 W/m² | - |
| 1836274151 | 24.44° C | 64% | 1018.4 hPa | 0 mm | 0.45 m/s, 58° | 0 W/m² | - |
| 1778051114 | 18.89° C | 77% | 1010.7 hPa | 0 mm | 0.89 m/s, 310° | 0 W/m² | - |
| 1778050811 | 18.89° C | 77% | 1010.8 hPa | 0 mm | 1.34 m/s, 333° | 0 W/m² | - |
| 1778050508 | 18.89° C | 77% | 1010.7 hPa | 0 mm | 2.24 m/s, 312° | 0 W/m² | - |
| 1778050205 | 19.44° C | 77% | 1010.8 hPa | 0 mm | 0.89 m/s, 297° | 0 W/m² | - |
| 1778049902 | 19.44° C | 77% | 1011.1 hPa | 0 mm | 0.45 m/s, 345° | 0 W/m² | - |
| 1778049597 | 19.44° C | 77% | 1011 hPa | 0 mm | 0.45 m/s, 322° | 0 W/m² | - |
| 1778049295 | 19.44° C | 77% | 1010.8 hPa | 0 mm | 0.89 m/s, 315° | 0 W/m² | - |
| 1778048993 | 19.44° C | 77% | 1011 hPa | 0 mm | 0.89 m/s, 6° | 0 W/m² | - |
| 1778048691 | 19.44° C | 77% | 1011 hPa | 0 mm | 1.79 m/s, 340° | 0 W/m² | - |
| 1778048387 | 19.44° C | 77% | 1010.8 hPa | 0 mm | 0.89 m/s, 303° | 0 W/m² | - |
| 1778048084 | 19.44° C | 77% | 1010.7 hPa | 0 mm | 0.45 m/s, 353° | 0 W/m² | - |
| 1778047782 | 19.44° C | 76% | 1010.8 hPa | 0 mm | 0.89 m/s, 337° | 0 W/m² | - |
| 1778047480 | 19.44° C | 76% | 1010.7 hPa | 0 mm | 0.89 m/s, 337° | 0 W/m² | - |
| 1778047176 | 20° C | 76% | 1010.9 hPa | 0 mm | 0.89 m/s, 358° | 0 W/m² | - |
| 1778046873 | 20° C | 76% | 1010.8 hPa | 0 mm | 1.34 m/s, 330° | 0 W/m² | - |
| 1778046570 | 20° C | 75% | 1011 hPa | 0 mm | 0.45 m/s, 328° | 0 W/m² | - |
| 1778046267 | 20° C | 75% | 1010.7 hPa | 0 mm | 0.89 m/s, 334° | 0 W/m² | - |
| 1778045963 | 20.56° C | 75% | 1010.7 hPa | 0 mm | 0.89 m/s, 321° | 0 W/m² | - |
| 1778045661 | 20.56° C | 74% | 1010.7 hPa | 0 mm | 1.79 m/s, 295° | 0 W/m² | - |
| 1778045360 | 20.56° C | 74% | 1010.9 hPa | 0 mm | 1.79 m/s, 303° | 0 W/m² | - |
| 1778045058 | 20.56° C | 73% | 1010.6 hPa | 0 mm | 0.45 m/s, 347° | 0 W/m² | - |
* Rain latest hour (hover to see other rain measurements)
** Current wind speed in m/s (hover to see current wind gust speed)